ONEWEB-0689

operational
NORAD ID: 61597 Int'l Des: 2024-188 Owner: ONEWEBE Country: UK Constellation: oneweb
LEOCIRCULARPOLARONEWEB_TYPE

Über ONEWEB-0689

Beschreibung wird geladen...

Live-Position

3D-Globus wird geladen...

Nächste Überflüge

Höhenverlauf

Altitude vs Time

uPlot chart will show altitude changes over time

Zweizeiliger Elementsatz

1 61597U 24188D 25251.50310198 .00000527 00000-0 14519-2 0 9999
2 61597 87.8744 77.1793 0001839 98.5141 261.6195 13.11418060 47535
Epoch: 8. Sept. 2025 • Age: 10 hours

Aktueller Status

Höhe 1225.8 km
Geschwindigkeit 7.25 km/s
Subsatellitenpunkt 55.74°N, 62.14°W
Startdatum 20. Okt. 2024
Alter 0.8 years
Typ internet

Technische Details

Klassifizierung Payload
Masse 148.00 kg
Trockenmasse 140.00 kg
Gesamtmasse 148.00 kg
Länge 1.30 m
Durchmesser 1.00 m
Spannweite 5.00 m
Form Trapezoid+2 pan
Hersteller ONEWUS
Bus-Typ ARROW
Phasenstatus In Orbit
Besitzer/Staat ONEWEBE/UK

Große Konstellationen

Loading constellations...